Location: B?dargowo
(53.3916°N, 14.4413°E)
Time: 08:54:24
(UTC+00:00)

Cosmos 2237 - Pass Details

Date: 05 February 2023
Orbit: 844 x 858 km, 70.8° (Epoch: 19 March)

Event Time Altitude Azimuth Distance (km) Brightness Sun altitude
Rises 16:51:07 0° 195° (SSW) 3,407 7.8 -9.0°
Reaches altitude 10° 16:53:36 10° 191° (S) 2,478 7.0 -9.4°
Maximum altitude 16:59:09 56° 114° (ESE) 1,011 4.4 -10.2°
Drops below altitude 10° 17:04:45 10° 38° (NE) 2,501 6.2 -11.0°
Enters shadow 17:05:57 - 36° (NE) 2,950 6.6 -11.2°
